Location: Oshawa
(43.9000°N, 78.8670°W)
Time: 16:14:05
(UTC-04:00)

Cosmos 1821 Rocket - Pass Details

Date: 30 April 2018
Orbit: 944 x 1005 km, 82.9° (Epoch: 18 September)

Event Time Altitude Azimuth Distance (km) Brightness Sun altitude
Rises 23:07:15 0° 224° (SW) 3,699 6.9 -24.5°
Reaches altitude 10° 23:10:17 10° 238° (WSW) 2,745 6.3 -24.8°
Maximum altitude 23:15:19 25° 291° (WNW) 1,886 6.0 -25.3°
Drops below altitude 10° 23:20:19 10° 344° (NNW) 2,725 7.3 -25.7°
Sets 23:23:20 0° 358° (N) 3,665 8.0 -26.0°
